Time,TemperatureF,DewpointF,PressureIn,WindDirection,WindDirectionDegrees,WindSpeedMPH,WindSpeedGustMPH,Humidity,HourlyPrecipIn,Conditions,Clouds,dailyrainin,SoftwareType,DateUTC
2013-07-23 00:11:00,79.0,-99.9,-100.00,WNW,296,2.0,-999.0,-999,0.00,,,0.01,,2013-07-23 05:11:00,
2013-07-23 00:22:00,79.0,-99.9,-100.00,WNW,296,2.0,-999.0,-999,0.00,,,0.01,,2013-07-23 05:22:00,
2013-07-23 01:01:00,78.0,-99.9,-100.00,SW,226,2.0,-999.0,-999,0.00,,,0.01,,2013-07-23 06:01:00,
2013-07-23 01:11:00,78.0,-99.9,-100.00,SW,226,2.0,-999.0,-999,0.00,,,0.01,,2013-07-23 06:11:00,
2013-07-23 01:22:00,78.0,-99.9,-100.00,SW,226,2.0,-999.0,-999,0.00,,,0.01,,2013-07-23 06:22:00,
2013-07-23 01:42:00,79.0,-99.9,-100.00,NNW,334,10.0,-999.0,-999,0.00,,,0.01,,2013-07-23 06:42:00,
2013-07-23 01:52:00,79.0,-99.9,-100.00,NNW,334,10.0,-999.0,-999,0.00,,,0.01,,2013-07-23 06:52:00,
2013-07-23 02:02:00,77.0,-99.9,-100.00,SW,226,3.0,-999.0,-999,0.00,,,0.01,,2013-07-23 07:02:00,
2013-07-23 02:12:00,77.0,-99.9,-100.00,SW,226,3.0,-999.0,-999,0.00,,,0.01,,2013-07-23 07:12:00,
2013-07-23 02:22:00,77.0,-99.9,-100.00,SW,226,3.0,-999.0,-999,0.00,,,0.01,,2013-07-23 07:22:00,
2013-07-23 02:42:00,77.0,-99.9,-100.00,SSW,213,3.0,-999.0,-999,0.00,,,0.01,,2013-07-23 07:42:00,
2013-07-23 02:52:00,77.0,-99.9,-100.00,SSW,213,3.0,-999.0,-999,0.00,,,0.01,,2013-07-23 07:52:00,
2013-07-23 03:11:00,78.0,-99.9,-100.00,SSW,206,4.0,-999.0,-999,0.00,,,0.01,,2013-07-23 08:11:00,
2013-07-23 03:22:00,78.0,-99.9,-100.00,SSW,206,4.0,-999.0,-999,0.00,,,0.01,,2013-07-23 08:22:00,
2013-07-23 03:43:00,78.0,-99.9,-100.00,SW,221,3.0,-999.0,-999,0.00,,,0.01,,2013-07-23 08:43:00,
2013-07-23 03:52:00,78.0,-99.9,-100.00,SW,221,3.0,-999.0,-999,0.00,,,0.01,,2013-07-23 08:52:00,
2013-07-23 04:01:00,76.0,-99.9,-100.00,SSW,208,3.0,-999.0,-999,0.00,,,0.01,,2013-07-23 09:01:00,
2013-07-23 04:11:00,76.0,-99.9,-100.00,SSW,208,3.0,-999.0,-999,0.00,,,0.01,,2013-07-23 09:11:00,
2013-07-23 04:22:00,76.0,-99.9,-100.00,SSW,208,3.0,-999.0,-999,0.00,,,0.01,,2013-07-23 09:22:00,
2013-07-23 04:43:00,74.0,-99.9,-100.00,WSW,247,1.0,-999.0,-999,0.00,,,0.01,,2013-07-23 09:43:00,
2013-07-23 04:53:00,74.0,-99.9,-100.00,WSW,247,1.0,-999.0,-999,0.00,,,0.01,,2013-07-23 09:53:00,
2013-07-23 05:11:00,73.0,-99.9,-100.00,SW,234,2.0,-999.0,-999,0.00,,,0.01,,2013-07-23 10:11:00,
2013-07-23 05:22:00,73.0,-99.9,-100.00,SW,234,2.0,-999.0,-999,0.00,,,0.01,,2013-07-23 10:22:00,
2013-07-23 05:44:00,73.0,-99.9,-100.00,NW,309,5.0,-999.0,-999,0.00,,,0.01,,2013-07-23 10:44:00,
2013-07-23 05:52:00,73.0,-99.9,-100.00,NW,309,5.0,-999.0,-999,0.00,,,0.01,,2013-07-23 10:52:00,
2013-07-23 06:02:00,72.0,-99.9,-100.00,NW,308,7.0,-999.0,-999,0.00,,,0.01,,2013-07-23 11:02:00,
2013-07-23 06:12:00,72.0,-99.9,-100.00,NW,308,7.0,-999.0,-999,0.00,,,0.01,,2013-07-23 11:12:00,
2013-07-23 06:22:00,72.0,-99.9,-100.00,NW,308,7.0,-999.0,-999,0.00,,,0.01,,2013-07-23 11:22:00,
2013-07-23 06:43:00,72.0,-99.9,-100.00,West,271,3.0,-999.0,-999,0.00,,,0.01,,2013-07-23 11:43:00,
2013-07-23 06:52:00,72.0,-99.9,-100.00,West,271,3.0,-999.0,-999,0.00,,,0.01,,2013-07-23 11:52:00,
2013-07-23 07:11:00,72.0,-99.9,-100.00,West,277,5.0,-999.0,-999,0.00,,,0.01,,2013-07-23 12:11:00,
2013-07-23 07:22:00,72.0,-99.9,-100.00,West,277,5.0,-999.0,-999,0.00,,,0.01,,2013-07-23 12:22:00,
2013-07-23 07:43:00,73.0,-99.9,-100.00,WNW,302,4.0,-999.0,-999,0.00,,,0.01,,2013-07-23 12:43:00,
2013-07-23 08:11:00,74.0,-99.9,-100.00,NW,309,5.0,-999.0,-999,0.00,,,0.01,,2013-07-23 13:11:00,
2013-07-23 08:22:00,74.0,-99.9,-100.00,NW,309,5.0,-999.0,-999,0.00,,,0.01,,2013-07-23 13:22:00,
2013-07-23 08:30:00,76.0,-99.9,-100.00,NNW,332,9.0,-999.0,-999,0.00,,,0.01,,2013-07-23 13:30:00,
2013-07-23 08:43:00,76.0,-99.9,-100.00,NW,307,3.0,-999.0,-999,0.00,,,0.01,,2013-07-23 13:43:00,
2013-07-23 08:53:00,76.0,-99.9,-100.00,NW,307,3.0,-999.0,-999,0.00,,,0.01,,2013-07-23 13:53:00,
2013-07-23 09:12:00,76.0,-99.9,-100.00,NNW,332,9.0,-999.0,-999,0.00,,,0.01,,2013-07-23 14:12:00,
2013-07-23 09:22:00,76.0,-99.9,-100.00,NNW,332,9.0,-999.0,-999,0.00,,,0.01,,2013-07-23 14:22:00,
2013-07-23 10:03:00,77.0,-99.9,-100.00,NNW,329,9.0,-999.0,-999,0.00,,,0.00,,2013-07-23 15:03:00,
2013-07-23 10:11:00,77.0,-99.9,-100.00,NNW,329,9.0,-999.0,-999,0.00,,,0.00,,2013-07-23 15:11:00,
2013-07-23 10:24:00,77.0,-99.9,-100.00,NNW,329,9.0,-999.0,-999,0.00,,,0.00,,2013-07-23 15:24:00,
2013-07-23 10:43:00,79.0,-99.9,-100.00,NW,323,10.0,-999.0,-999,0.00,,,0.00,,2013-07-23 15:43:00,
2013-07-23 10:52:00,79.0,-99.9,-100.00,NW,323,10.0,-999.0,-999,0.00,,,0.00,,2013-07-23 15:52:00,
2013-07-23 11:12:00,79.0,-99.9,-100.00,NW,315,7.0,-999.0,-999,0.00,,,0.00,,2013-07-23 16:12:00,
2013-07-23 11:22:00,79.0,-99.9,-100.00,NW,315,7.0,-999.0,-999,0.00,,,0.00,,2013-07-23 16:22:00,
2013-07-23 11:43:00,81.0,-99.9,-100.00,NW,317,9.0,-999.0,-999,0.00,,,0.00,,2013-07-23 16:43:00,
2013-07-23 11:52:00,81.0,-99.9,-100.00,NW,317,9.0,-999.0,-999,0.00,,,0.00,,2013-07-23 16:52:00,
2013-07-23 12:11:00,81.0,-99.9,-100.00,NW,322,5.0,-999.0,-999,0.00,,,0.00,,2013-07-23 17:11:00,
2013-07-23 12:22:00,81.0,-99.9,-100.00,NW,322,5.0,-999.0,-999,0.00,,,0.00,,2013-07-23 17:22:00,
2013-07-23 12:42:00,83.0,-99.9,-100.00,NW,311,7.0,-999.0,-999,0.00,,,0.00,,2013-07-23 17:42:00,
2013-07-23 12:57:00,83.0,-99.9,-100.00,NW,311,7.0,-999.0,-999,0.00,,,0.00,,2013-07-23 17:57:00,
2013-07-23 13:14:00,84.0,-99.9,-100.00,NW,319,9.0,-999.0,-999,0.00,,,0.00,,2013-07-23 18:14:00,
2013-07-23 13:26:00,84.0,-99.9,-100.00,NW,319,9.0,-999.0,-999,0.00,,,0.00,,2013-07-23 18:26:00,
2013-07-23 13:49:00,84.0,-99.9,-100.00,NW,320,9.0,-999.0,-999,0.00,,,0.00,,2013-07-23 18:49:00,
2013-07-23 14:04:00,84.0,-99.9,-100.00,NNW,327,14.0,-999.0,-999,0.00,,,0.00,,2013-07-23 19:04:00,
2013-07-23 14:15:00,84.0,-99.9,-100.00,NNW,327,14.0,-999.0,-999,0.00,,,0.00,,2013-07-23 19:15:00,
2013-07-23 14:29:00,84.0,-99.9,-100.00,NNW,327,14.0,-999.0,-999,0.00,,,0.00,,2013-07-23 19:29:00,
2013-07-23 14:36:00,84.0,-99.9,-100.00,NNW,334,11.0,-999.0,-999,0.00,,,0.00,,2013-07-23 19:36:00,
2013-07-23 14:57:00,84.0,-99.9,-100.00,NNW,334,11.0,-999.0,-999,0.00,,,0.00,,2013-07-23 19:57:00,
2013-07-23 15:15:00,84.0,-99.9,-100.00,NNW,333,13.0,-999.0,-999,0.00,,,0.00,,2013-07-23 20:15:00,
2013-07-23 15:25:00,84.0,-99.9,-100.00,NNW,333,13.0,-999.0,-999,0.00,,,0.00,,2013-07-23 20:25:00,
2013-07-23 15:30:00,84.0,-99.9,-100.00,NNW,327,12.0,-999.0,-999,0.00,,,0.00,,2013-07-23 20:30:00,
2013-07-23 15:48:00,84.0,-99.9,-100.00,NW,326,11.0,-999.0,-999,0.00,,,0.00,,2013-07-23 20:48:00,
2013-07-23 15:59:00,84.0,-99.9,-100.00,NW,326,11.0,-999.0,-999,0.00,,,0.00,,2013-07-23 20:59:00,
2013-07-23 16:06:00,84.0,-99.9,-100.00,NNW,327,12.0,-999.0,-999,0.00,,,0.00,,2013-07-23 21:06:00,
2013-07-23 16:15:00,84.0,-99.9,-100.00,NNW,327,12.0,-999.0,-999,0.00,,,0.00,,2013-07-23 21:15:00,
2013-07-23 16:25:00,84.0,-99.9,-100.00,NNW,327,12.0,-999.0,-999,0.00,,,0.00,,2013-07-23 21:25:00,
2013-07-23 17:00:00,84.0,-99.9,-100.00,NNW,327,10.0,-999.0,-999,0.00,,,0.00,,2013-07-23 22:00:00,
2013-07-23 17:14:00,84.0,-99.9,-100.00,NW,319,11.0,-999.0,-999,0.00,,,-99.99,,2013-07-23 22:14:00,
2013-07-23 17:24:00,84.0,-99.9,-100.00,NW,319,11.0,-999.0,-999,0.00,,,-99.99,,2013-07-23 22:24:00,
2013-07-23 17:37:00,84.0,-99.9,-100.00,NNW,327,10.0,-999.0,-999,0.00,,,0.00,,2013-07-23 22:37:00,
2013-07-23 17:48:00,84.0,-99.9,-100.00,NNW,327,10.0,-999.0,-999,0.00,,,0.00,,2013-07-23 22:48:00,
2013-07-23 18:00:00,82.0,-99.9,-100.00,NNW,346,8.0,-999.0,-999,0.00,,,0.00,,2013-07-23 23:00:00,
2013-07-23 18:15:00,84.0,-99.9,-100.00,North,357,14.0,-999.0,-999,0.00,,,0.00,,2013-07-23 23:15:00,
2013-07-23 18:38:00,82.0,-99.9,-100.00,NNW,346,8.0,-999.0,-999,0.00,,,0.00,,2013-07-23 23:38:00,
2013-07-23 18:48:00,82.0,-99.9,-100.00,NNW,346,8.0,-999.0,-999,0.00,,,0.00,,2013-07-23 23:48:00,
2013-07-23 19:12:00,80.0,-99.9,-100.00,North,350,8.0,-999.0,-999,0.00,,,0.00,,2013-07-24 00:12:00,
2013-07-23 19:26:00,80.0,-99.9,-100.00,North,350,8.0,-999.0,-999,0.00,,,0.00,,2013-07-24 00:26:00,
2013-07-23 19:51:00,79.0,-99.9,-100.00,NNW,344,12.0,-999.0,-999,0.00,,,0.00,,2013-07-24 00:51:00,
2013-07-23 19:58:00,79.0,-99.9,-100.00,NNW,344,12.0,-999.0,-999,0.00,,,0.00,,2013-07-24 00:58:00,
2013-07-23 20:00:00,78.0,-99.9,-100.00,North,349,9.0,-999.0,-999,0.00,,,0.00,,2013-07-24 01:00:00,
2013-07-23 20:05:00,78.0,-99.9,-100.00,North,356,10.0,-999.0,-999,0.00,,,0.00,,2013-07-24 01:05:00,
2013-07-23 20:17:00,78.0,-99.9,-100.00,North,356,10.0,-999.0,-999,0.00,,,0.00,,2013-07-24 01:17:00,
2013-07-23 20:25:00,78.0,-99.9,-100.00,North,356,10.0,-999.0,-999,0.00,,,0.00,,2013-07-24 01:25:00,
2013-07-23 20:36:00,78.0,-99.9,-100.00,North,349,9.0,-999.0,-999,0.00,,,0.00,,2013-07-24 01:36:00,
2013-07-23 20:49:00,78.0,-99.9,-100.00,North,349,9.0,-999.0,-999,0.00,,,0.00,,2013-07-24 01:49:00,
2013-07-23 21:19:00,76.0,-99.9,-100.00,North,350,6.0,-999.0,-999,0.00,,,0.00,,2013-07-24 02:19:00,
2013-07-23 21:28:00,76.0,-99.9,-100.00,North,350,6.0,-999.0,-999,0.00,,,0.00,,2013-07-24 02:28:00,
2013-07-23 21:40:00,75.0,-99.9,-100.00,NNW,340,7.0,-999.0,-999,0.00,,,0.00,,2013-07-24 02:40:00,
2013-07-23 21:49:00,75.0,-99.9,-100.00,NNW,340,7.0,-999.0,-999,0.00,,,0.00,,2013-07-24 02:49:00,
2013-07-23 21:58:00,75.0,-99.9,-100.00,NNW,340,7.0,-999.0,-999,0.00,,,0.00,,2013-07-24 02:58:00,
2013-07-23 22:14:00,74.0,-99.9,-100.00,NNW,338,8.0,-999.0,-999,0.00,,,0.00,,2013-07-24 03:14:00,
2013-07-23 22:40:00,74.0,-99.9,-100.00,NNW,340,10.0,-999.0,-999,0.00,,,0.00,,2013-07-24 03:40:00,
2013-07-23 22:47:00,74.0,-99.9,-100.00,NNW,340,10.0,-999.0,-999,0.00,,,0.00,,2013-07-24 03:47:00,
2013-07-23 23:11:00,73.0,-99.9,-100.00,NNW,345,6.0,-999.0,-999,0.00,,,0.00,,2013-07-24 04:11:00,
2013-07-23 23:22:00,73.0,-99.9,-100.00,NNW,345,6.0,-999.0,-999,0.00,,,0.00,,2013-07-24 04:22:00,
2013-07-23 23:32:00,72.0,-99.9,-100.00,NNW,338,8.0,-999.0,-999,0.00,,,0.00,,2013-07-24 04:32:00,
2013-07-23 23:44:00,72.0,-99.9,-100.00,NNW,338,8.0,-999.0,-999,0.00,,,0.00,,2013-07-24 04:44:00,
2013-07-23 23:53:00,72.0,-99.9,-100.00,NNW,338,8.0,-999.0,-999,0.00,,,0.00,,2013-07-24 04:53:00,